Location: Allentsteig
(48.6833°N, 15.3167°E)
Time: 16:34:30
(UTC+00:00)

Cosmos 2278 Rocket - Visible Passes

Search period start: 30 November 2021 00:00
Search period end: 10 December 2021 00:00
Orbit: 841 x 845 km, 71.0° (Epoch: 29 November)

Date Brightness Start Highest point End Pass type
(mag) Time Alt. Az. Time Alt. Az. Time Alt. Az.
30 Nov 4.9 01:51:33 14° NE 01:51:33 14° NE 01:52:26 10° NE visible
30 Nov 3.0 03:33:26 39° N 03:33:26 39° N 03:37:09 10° NNE visible
30 Nov 3.8 05:15:18 14° NW 05:16:54 16° NW 05:20:15 10° N visible
01 Dec 3.5 03:19:42 30° NNE 03:19:42 30° NNE 03:22:34 10° NNE visible
01 Dec 3.7 05:01:35 16° NW 05:02:16 16° NW 05:05:43 10° N visible
02 Dec 3.9 03:05:52 23° NNE 03:05:52 23° NNE 03:08:00 10° NNE visible
02 Dec 3.8 04:47:45 16° NW 04:47:45 16° NW 04:51:11 10° N visible
03 Dec 4.3 02:51:58 18° NNE 02:51:58 18° NNE 02:53:25 10° NNE visible
03 Dec 3.9 04:33:50 16° NNW 04:33:50 16° NNW 04:36:37 10° N visible
04 Dec 4.6 02:38:00 14° NNE 02:38:00 14° NNE 02:38:50 10° NNE visible
04 Dec 4.0 04:19:52 16° NNW 04:19:52 16° NNW 04:22:05 10° N visible
05 Dec 4.8 02:24:00 11° NNE 02:24:00 11° NNE 02:24:16 10° NNE visible
05 Dec 4.1 04:05:51 15° N 04:05:51 15° N 04:07:32 10° N visible
06 Dec 4.3 03:51:47 14° N 03:51:47 14° N 03:52:59 10° N visible
07 Dec 4.4 03:37:42 12° N 03:37:42 12° N 03:38:26 10° N visible
08 Dec 4.6 03:23:35 11° N 03:23:35 11° N 03:23:53 10° N visible
